| time (UTC) | temp F | wind direction | speed MPH | gust MPH | rain 1hr in | rain 24hr in | rain mn in | humidity % | barometer mb |
| 20260504050721 | 64 | 153 | 3.0 | 5.0 | 0.00 | 0.00 | 0.00 | 76 | 1016.1 |
| 20260504050218 | 64 | 139 | 2.0 | 2.0 | 0.00 | 0.00 | 0.00 | 75 | 1016.1 |
| 20260504045715 | 64 | 122 | 3.0 | 3.0 | 0.00 | 0.00 | 0.00 | 75 | 1016.3 |
| 20260504045210 | 64 | 128 | 3.0 | 3.0 | 0.00 | 0.00 | 0.00 | 75 | 1016.0 |
| 20260504044708 | 64 | 124 | 2.0 | 2.0 | 0.00 | 0.00 | 0.00 | 74 | 1016.1 |
| 20260504044205 | 64 | 148 | 3.0 | 3.0 | 0.00 | 0.00 | 0.00 | 74 | 1016.4 |
| 20260504043701 | 64 | 156 | 2.0 | 3.0 | 0.00 | 0.00 | 0.00 | 73 | 1016.2 |
| 20260504043158 | 64 | 162 | 3.0 | 5.0 | 0.00 | 0.00 | 0.00 | 73 | 1016.3 |
| 20260504042656 | 64 | 141 | 3.0 | 5.0 | 0.00 | 0.00 | 0.00 | 73 | 1016.3 |
| 20260504042152 | 65 | 113 | 3.0 | 5.0 | 0.00 | 0.00 | 0.00 | 72 | 1016.5 |
| 20260504041648 | 65 | 139 | 4.0 | 5.0 | 0.00 | 0.00 | 0.00 | 72 | 1016.2 |
| 20260504041144 | 65 | 126 | 2.0 | 2.0 | 0.00 | 0.00 | 0.00 | 71 | 1016.6 |
| 20260504040642 | 65 | 97 | 2.0 | 3.0 | 0.00 | 0.00 | 0.00 | 71 | 1016.6 |
| 20260504040138 | 65 | 130 | 4.0 | 6.0 | 0.00 | 0.00 | 0.00 | 71 | 1016.6 |
| 20260504035635 | 65 | 111 | 1.0 | 2.0 | 0.00 | 0.00 | 0.00 | 71 | 1016.5 |
| 20260504035132 | 65 | 104 | 1.0 | 2.0 | 0.00 | 0.00 | 0.00 | 70 | 1016.3 |
| 20260504034630 | 65 | 159 | 3.0 | 3.0 | 0.00 | 0.00 | 0.00 | 70 | 1016.3 |
| 20260504034126 | 65 | 121 | 3.0 | 5.0 | 0.00 | 0.00 | 0.00 | 69 | 1016.4 |
| 20260504033624 | 66 | 152 | 2.0 | 3.0 | 0.00 | 0.00 | 0.00 | 69 | 1016.2 |
| 20260504033121 | 66 | 145 | 5.0 | 7.0 | 0.00 | 0.00 | 0.00 | 68 | 1016.4 |
| 20260504032618 | 66 | 118 | 3.0 | 3.0 | 0.00 | 0.00 | 0.00 | 68 | 1016.3 |
| 20260504032115 | 66 | 138 | 3.0 | 3.0 | 0.00 | 0.00 | 0.00 | 68 | 1016.2 |
| 20260504031612 | 66 | 144 | 2.0 | 2.0 | 0.00 | 0.00 | 0.00 | 67 | 1016.1 |
| 20260504031108 | 66 | 106 | 3.0 | 3.0 | 0.00 | 0.00 | 0.00 | 66 | 1016.3 |
| 20260504030605 | 66 | 132 | 2.0 | 2.0 | 0.00 | 0.00 | 0.00 | 65 | 1016.2 |
| 20260504025559 | 66 | 105 | 1.0 | 2.0 | 0.00 | 0.00 | 0.00 | 61 | 1016.2 |
| 20260504025056 | 66 | 108 | 1.0 | 1.0 | 0.00 | 0.00 | 0.00 | 60 | 1016.3 |
| 20260504024553 | 66 | 89 | 1.0 | 1.0 | 0.00 | 0.00 | 0.00 | 59 | 1016.1 |
| 20260504024049 | 66 | 90 | 0.0 | 1.0 | 0.00 | 0.00 | 0.00 | 60 | 1016.3 |
| 20260504023546 | 66 | 106 | 0.0 | 0.0 | 0.00 | 0.00 | 0.00 | 63 | 1016.4 |
| 20260504023042 | 66 | 106 | 0.0 | 0.0 | 0.00 | 0.00 | 0.00 | 58 | 1016.1 |
| 20260504022538 | 66 | 106 | 0.0 | 0.0 | 0.00 | 0.00 | 0.00 | 58 | 1016.0 |
| 20260504022035 | 66 | 106 | 0.0 | 0.0 | 0.00 | 0.00 | 0.00 | 58 | 1015.8 |
| 20260504021532 | 66 | 106 | 0.0 | 0.0 | 0.00 | 0.00 | 0.00 | 58 | 1016.0 |
| 20260504021029 | 67 | 106 | 0.0 | 0.0 | 0.00 | 0.00 | 0.00 | 57 | 1016.2 |
| 20260504020526 | 67 | 106 | 0.0 | 0.0 | 0.00 | 0.00 | 0.00 | 56 | 1016.0 |
| 20260504020022 | 68 | 106 | 0.0 | 0.0 | 0.00 | 0.00 | 0.00 | 55 | 1016.0 |
| 20260504015519 | 68 | 106 | 0.0 | 0.0 | 0.00 | 0.00 | 0.00 | 55 | 1015.8 |
| 20260504015015 | 68 | 106 | 0.0 | 0.0 | 0.00 | 0.00 | 0.00 | 55 | 1015.8 |
| 20260504014511 | 68 | 106 | 0.0 | 0.0 | 0.00 | 0.00 | 0.00 | 55 | 1015.7 |
| 20260504014008 | 68 | 106 | 0.0 | 0.0 | 0.00 | 0.00 | 0.00 | 54 | 1015.7 |
| 20260504013506 | 69 | 106 | 0.0 | 0.0 | 0.00 | 0.00 | 0.00 | 54 | 1015.9 |
| 20260504013003 | 69 | 106 | 0.0 | 0.0 | 0.00 | 0.00 | 0.00 | 53 | 1015.7 |
| 20260504012500 | 69 | 106 | 0.0 | 0.0 | 0.00 | 0.00 | 0.00 | 53 | 1015.4 |
| 20260504011958 | 69 | 84 | 0.0 | 0.0 | 0.00 | 0.00 | 0.00 | 52 | 1015.7 |
| 20260504011454 | 70 | 87 | 0.0 | 0.0 | 0.00 | 0.00 | 0.00 | 51 | 1015.4 |
| 20260504010950 | 70 | 91 | 0.0 | 1.0 | 0.00 | 0.00 | 0.00 | 51 | 1015.7 |
| 20260504010446 | 70 | 89 | 0.0 | 0.0 | 0.00 | 0.00 | 0.00 | 51 | 1015.3 |
| 20260504005942 | 71 | 103 | 0.0 | 0.0 | 0.00 | 0.00 | 0.00 | 50 | 1015.9 |
| 20260504005439 | 71 | 73 | 0.0 | 1.0 | 0.00 | 0.00 | 0.00 | 49 | 1015.4 |
| 20260504004937 | 71 | 109 | 1.0 | 2.0 | 0.00 | 0.00 | 0.00 | 49 | 1015.2 |
| 20260504004434 | 71 | 176 | 4.0 | 5.0 | 0.00 | 0.00 | 0.00 | 48 | 1015.4 |
| 20260504003931 | 72 | 120 | 2.0 | 2.0 | 0.00 | 0.00 | 0.00 | 48 | 1015.4 |
| 20260504003427 | 72 | 102 | 2.0 | 3.0 | 0.00 | 0.00 | 0.00 | 47 | 1015.5 |
| 20260504002924 | 73 | 200 | 2.0 | 3.0 | 0.00 | 0.00 | 0.00 | 47 | 1015.9 |
| 20260504002421 | 73 | 119 | 2.0 | 3.0 | 0.00 | 0.00 | 0.00 | 46 | 1015.8 |
| 20260504001919 | 73 | 204 | 4.0 | 5.0 | 0.00 | 0.00 | 0.00 | 46 | 1015.8 |
| 20260504001416 | 74 | 138 | 2.0 | 3.0 | 0.00 | 0.00 | 0.00 | 46 | 1016.0 |
| 20260504000912 | 74 | 118 | 4.0 | 5.0 | 0.00 | 0.00 | 0.00 | 45 | 1016.2 |
| 20260504000410 | 73 | 167 | 2.0 | 3.0 | 0.00 | 0.00 | 0.00 | 46 | 1016.1 |
| 20260503235907 | 74 | 131 | 2.0 | 3.0 | 0.00 | 0.00 | 0.00 | 45 | 1016.0 |
| 20260503235405 | 74 | 157 | 3.0 | 3.0 | 0.00 | 0.00 | 0.00 | 45 | 1016.2 |
| 20260503234902 | 75 | 171 | 3.0 | 6.0 | 0.00 | 0.00 | 0.00 | 45 | 1016.1 |
| 20260503234359 | 75 | 140 | 5.0 | 7.0 | 0.00 | 0.00 | 0.00 | 44 | 1016.0 |
| 20260503233857 | 75 | 178 | 3.0 | 3.0 | 0.00 | 0.00 | 0.00 | 45 | 1016.2 |
| 20260503233353 | 74 | 163 | 3.0 | 3.0 | 0.00 | 0.00 | 0.00 | 46 | 1016.4 |
| 20260503232849 | 75 | 134 | 2.0 | 2.0 | 0.00 | 0.00 | 0.00 | 46 | 1016.3 |
| 20260503232347 | 76 | 141 | 3.0 | 6.0 | 0.00 | 0.00 | 0.00 | 45 | 1016.3 |
| 20260503231845 | 76 | 159 | 5.0 | 6.0 | 0.00 | 0.00 | 0.00 | 44 | 1016.3 |
| 20260503231341 | 76 | 148 | 5.0 | 7.0 | 0.00 | 0.00 | 0.00 | 44 | 1016.0 |
| 20260503230838 | 76 | 151 | 3.0 | 5.0 | 0.00 | 0.00 | 0.00 | 45 | 1016.2 |
| 20260503230335 | 76 | 124 | 5.0 | 7.0 | 0.00 | 0.00 | 0.00 | 44 | 1016.4 |
| 20260503225833 | 76 | 155 | 6.0 | 7.0 | 0.00 | 0.00 | 0.00 | 43 | 1016.3 |
| 20260503225328 | 77 | 164 | 4.0 | 5.0 | 0.00 | 0.00 | 0.00 | 44 | 1016.3 |
| 20260503224825 | 77 | 74 | 4.0 | 7.0 | 0.00 | 0.00 | 0.00 | 42 | 1016.1 |
| 20260503224322 | 77 | 159 | 5.0 | 6.0 | 0.00 | 0.00 | 0.00 | 43 | 1016.3 |
| 20260503223820 | 77 | 171 | 3.0 | 5.0 | 0.00 | 0.00 | 0.00 | 42 | 1016.4 |
| 20260503223317 | 77 | 145 | 4.0 | 6.0 | 0.00 | 0.00 | 0.00 | 41 | 1016.3 |
| 20260503222813 | 78 | 182 | 3.0 | 3.0 | 0.00 | 0.00 | 0.00 | 42 | 1016.6 |
| 20260503222311 | 78 | 60 | 3.0 | 3.0 | 0.00 | 0.00 | 0.00 | 41 | 1016.5 |
| 20260503221809 | 77 | 177 | 4.0 | 5.0 | 0.00 | 0.00 | 0.00 | 42 | 1016.5 |
| 20260503221308 | 76 | 136 | 2.0 | 3.0 | 0.00 | 0.00 | 0.00 | 41 | 1016.7 |
| 20260503220803 | 76 | 152 | 3.0 | 5.0 | 0.00 | 0.00 | 0.00 | 42 | 1016.7 |
| 20260503220300 | 77 | 139 | 4.0 | 6.0 | 0.00 | 0.00 | 0.00 | 40 | 1016.9 |
| 20260503215757 | 77 | 141 | 3.0 | 5.0 | 0.00 | 0.00 | 0.00 | 42 | 1016.8 |
| 20260503215254 | 77 | 156 | 5.0 | 6.0 | 0.00 | 0.00 | 0.00 | 43 | 1017.2 |
| 20260503214752 | 78 | 152 | 3.0 | 3.0 | 0.00 | 0.00 | 0.00 | 40 | 1017.1 |
| 20260503214249 | 77 | 166 | 4.0 | 5.0 | 0.00 | 0.00 | 0.00 | 41 | 1017.4 |
| 20260503213747 | 77 | 233 | 4.0 | 6.0 | 0.00 | 0.00 | 0.00 | 40 | 1017.4 |
| 20260503213244 | 77 | 183 | 4.0 | 6.0 | 0.00 | 0.00 | 0.00 | 40 | 1017.5 |
| 20260503212740 | 78 | 150 | 5.0 | 6.0 | 0.00 | 0.00 | 0.00 | 41 | 1017.5 |
| 20260503212238 | 79 | 62 | 1.0 | 1.0 | 0.00 | 0.00 | 0.00 | 39 | 1017.4 |
| 20260503211735 | 77 | 188 | 4.0 | 6.0 | 0.00 | 0.00 | 0.00 | 40 | 1017.4 |
| 20260503211231 | 78 | 131 | 2.0 | 2.0 | 0.00 | 0.00 | 0.00 | 40 | 1017.5 |
| 20260503210727 | 78 | 74 | 3.0 | 5.0 | 0.00 | 0.00 | 0.00 | 40 | 1017.8 |
| 20260503210225 | 77 | 155 | 2.0 | 3.0 | 0.00 | 0.00 | 0.00 | 40 | 1018.0 |
| 20260503205720 | 77 | 178 | 5.0 | 7.0 | 0.00 | 0.00 | 0.00 | 39 | 1018.1 |
| 20260503205216 | 78 | 165 | 3.0 | 3.0 | 0.00 | 0.00 | 0.00 | 37 | 1018.2 |
| 20260503204713 | 78 | 189 | 3.0 | 5.0 | 0.00 | 0.00 | 0.00 | 38 | 1018.2 |
| 20260503204211 | 78 | 119 | 4.0 | 5.0 | 0.00 | 0.00 | 0.00 | 39 | 1018.2 |
| 20260503203708 | 78 | 94 | 4.0 | 5.0 | 0.00 | 0.00 | 0.00 | 38 | 1018.5 |
| 20260503203205 | 78 | 204 | 3.0 | 6.0 | 0.00 | 0.00 | 0.00 | 38 | 1018.6 |
| 20260503202702 | 78 | 164 | 4.0 | 5.0 | 0.00 | 0.00 | 0.00 | 38 | 1018.8 |
| 20260503202200 | 77 | 188 | 3.0 | 6.0 | 0.00 | 0.00 | 0.00 | 41 | 1018.7 |
| 20260503201658 | 78 | 138 | 3.0 | 3.0 | 0.00 | 0.00 | 0.00 | 42 | 1018.9 |
| 20260503201155 | 77 | 200 | 4.0 | 5.0 | 0.00 | 0.00 | 0.00 | 40 | 1018.9 |
| 20260503200651 | 77 | 143 | 7.0 | 7.0 | 0.00 | 0.00 | 0.00 | 40 | 1019.1 |
| 20260503200148 | 77 | 186 | 3.0 | 5.0 | 0.00 | 0.00 | 0.00 | 39 | 1018.9 |
| 20260503195644 | 77 | 146 | 3.0 | 5.0 | 0.00 | 0.00 | 0.00 | 39 | 1019.1 |
| 20260503195142 | 78 | 145 | 5.0 | 6.0 | 0.00 | 0.00 | 0.00 | 40 | 1019.3 |
| 20260503194639 | 77 | 121 | 3.0 | 5.0 | 0.00 | 0.00 | 0.00 | 41 | 1019.2 |
| 20260503194134 | 77 | 142 | 5.0 | 6.0 | 0.00 | 0.00 | 0.00 | 38 | 1019.2 |
| 20260503193631 | 77 | 154 | 6.0 | 7.0 | 0.00 | 0.00 | 0.00 | 38 | 1019.4 |
| 20260503193126 | 78 | 279 | 3.0 | 6.0 | 0.00 | 0.00 | 0.00 | 37 | 1019.4 |
| 20260503192622 | 77 | 178 | 2.0 | 3.0 | 0.00 | 0.00 | 0.00 | 41 | 1019.4 |
| 20260503192118 | 77 | 153 | 5.0 | 7.0 | 0.00 | 0.00 | 0.00 | 41 | 1019.8 |
| 20260503191615 | 77 | 144 | 4.0 | 5.0 | 0.00 | 0.00 | 0.00 | 42 | 1019.6 |
| 20260503191112 | 78 | 136 | 4.0 | 5.0 | 0.00 | 0.00 | 0.00 | 40 | 1019.6 |
| 20260503190609 | 77 | 62 | 1.0 | 1.0 | 0.00 | 0.00 | 0.00 | 42 | 1019.6 |
| 20260503190106 | 76 | 45 | 5.0 | 6.0 | 0.00 | 0.00 | 0.00 | 44 | 1019.8 |
| 20260503185603 | 76 | 160 | 6.0 | 8.0 | 0.00 | 0.00 | 0.00 | 41 | 1020.0 |
| 20260503185102 | 76 | 179 | 4.0 | 6.0 | 0.00 | 0.00 | 0.00 | 43 | 1020.1 |
| 20260503184558 | 77 | 165 | 7.0 | 8.0 | 0.00 | 0.00 | 0.00 | 42 | 1020.0 |
| 20260503184055 | 76 | 251 | 5.0 | 6.0 | 0.00 | 0.00 | 0.00 | 42 | 1020.3 |
| 20260503183551 | 76 | 142 | 3.0 | 6.0 | 0.00 | 0.00 | 0.00 | 41 | 1020.1 |
| 20260503183049 | 76 | 163 | 4.0 | 6.0 | 0.00 | 0.00 | 0.00 | 42 | 1020.4 |
| 20260503182547 | 76 | 164 | 5.0 | 7.0 | 0.00 | 0.00 | 0.00 | 44 | 1020.5 |
| 20260503182045 | 77 | 158 | 7.0 | 8.0 | 0.00 | 0.00 | 0.00 | 42 | 1020.5 |
| 20260503181541 | 76 | 124 | 4.0 | 6.0 | 0.00 | 0.00 | 0.00 | 44 | 1020.5 |
| 20260503181038 | 76 | 150 | 7.0 | 9.0 | 0.00 | 0.00 | 0.00 | 43 | 1020.7 |
| 20260503180535 | 75 | 151 | 3.0 | 3.0 | 0.00 | 0.00 | 0.00 | 42 | 1020.7 |
| 20260503180032 | 75 | 164 | 8.0 | 9.0 | 0.00 | 0.00 | 0.00 | 42 | 1021.1 |
| 20260503175530 | 77 | 150 | 6.0 | 7.0 | 0.00 | 0.00 | 0.00 | 42 | 1021.0 |
| 20260503175027 | 76 | 158 | 5.0 | 7.0 | 0.00 | 0.00 | 0.00 | 44 | 1020.8 |
| 20260503174524 | 75 | 165 | 4.0 | 5.0 | 0.00 | 0.00 | 0.00 | 44 | 1021.0 |
| 20260503174020 | 75 | 138 | 5.0 | 7.0 | 0.00 | 0.00 | 0.00 | 40 | 1021.4 |
| 20260503173515 | 76 | 330 | 3.0 | 5.0 | 0.00 | 0.00 | 0.00 | 42 | 1021.2 |
| 20260503173012 | 75 | 141 | 5.0 | 7.0 | 0.00 | 0.00 | 0.00 | 42 | 1021.5 |
| 20260503172510 | 74 | 159 | 6.0 | 8.0 | 0.00 | 0.00 | 0.00 | 45 | 1021.6 |
| 20260503172006 | 75 | 156 | 4.0 | 5.0 | 0.00 | 0.00 | 0.00 | 42 | 1021.7 |
| 20260503171503 | 75 | 155 | 6.0 | 8.0 | 0.00 | 0.00 | 0.00 | 42 | 1021.7 |
| 20260503171000 | 75 | 135 | 4.0 | 6.0 | 0.00 | 0.00 | 0.00 | 43 | 1021.4 |
| 20260503170456 | 75 | 162 | 5.0 | 7.0 | 0.00 | 0.00 | 0.00 | 42 | 1021.7 |
| 20260503150849 | 71 | 62 | 1.0 | 1.0 | 0.00 | 0.00 | 0.00 | 54 | 1022.3 |
| 20260503150345 | 71 | 63 | 1.0 | 1.0 | 0.00 | 0.00 | 0.00 | 53 | 1022.2 |
| 20260503140309 | 66 | 62 | 1.0 | 2.0 | 0.00 | 0.00 | 0.00 | 66 | 1021.6 |
| 20260503131239 | 58 | 63 | 0.0 | 0.0 | 0.00 | 0.00 | 0.00 | 89 | 1021.5 |
| 20260503130736 | 57 | 63 | 0.0 | 0.0 | 0.00 | 0.00 | 0.00 | 89 | 1021.5 |
| 20260503130233 | 56 | 63 | 0.0 | 0.0 | 0.00 | 0.00 | 0.00 | 89 | 1021.0 |
| 20260503120200 | 51 | 62 | 0.0 | 0.0 | 0.00 | 0.00 | 0.00 | 90 | 1020.8 |
| 20260503110627 | 53 | 62 | 0.0 | 0.0 | 0.00 | 0.00 | 0.00 | 85 | 1020.4 |
| 20260503110124 | 53 | 62 | 0.0 | 0.0 | 0.00 | 0.00 | 0.00 | 85 | 1020.3 |
| 20260503081440 | 54 | 75 | 0.0 | 0.0 | 0.00 | 0.00 | 0.00 | 80 | 1020.0 |
| 20260503080937 | 55 | 75 | 0.0 | 0.0 | 0.00 | 0.00 | 0.00 | 80 | 1020.0 |
| 20260503080433 | 55 | 76 | 0.0 | 0.0 | 0.00 | 0.00 | 0.00 | 79 | 1020.0 |
| 20260503072910 | 56 | 76 | 0.0 | 0.0 | 0.00 | 0.00 | 0.00 | 76 | 1020.5 |
| 20260503072407 | 55 | 76 | 0.0 | 0.0 | 0.00 | 0.00 | 0.00 | 77 | 1020.6 |
| 20260503071904 | 55 | 76 | 0.0 | 0.0 | 0.00 | 0.00 | 0.00 | 78 | 1020.4 |
| 20260503071401 | 56 | 76 | 0.0 | 0.0 | 0.00 | 0.00 | 0.00 | 78 | 1020.6 |
| 20260503070857 | 55 | 76 | 0.0 | 0.0 | 0.00 | 0.00 | 0.00 | 77 | 1020.6 |
| 20260503070355 | 55 | 76 | 0.0 | 0.0 | 0.00 | 0.00 | 0.00 | 78 | 1020.8 |
| 20260503060320 | 56 | 75 | 0.0 | 0.0 | 0.00 | 0.00 | 0.00 | 80 | 1020.9 |
| 20260503054808 | 56 | 76 | 0.0 | 0.0 | 0.00 | 0.00 | 0.00 | 78 | 1020.8 |
| 20260503054304 | 56 | 76 | 0.0 | 0.0 | 0.00 | 0.00 | 0.00 | 77 | 1020.7 |
| 20260503053802 | 57 | 76 | 0.0 | 0.0 | 0.00 | 0.00 | 0.00 | 77 | 1020.5 |
| 20260503053300 | 57 | 76 | 0.0 | 0.0 | 0.00 | 0.00 | 0.00 | 77 | 1020.8 |
| 20260503052756 | 56 | 76 | 0.0 | 0.0 | 0.00 | 0.00 | 0.00 | 78 | 1020.8 |
| 20260503052253 | 56 | 76 | 0.0 | 0.0 | 0.00 | 0.00 | 0.00 | 79 | 1020.7 |
| 20260503051749 | 56 | 76 | 0.0 | 0.0 | 0.00 | 0.00 | 0.00 | 79 | 1020.6 |
| 20260503051246 | 56 | 76 | 0.0 | 0.0 | 0.00 | 0.00 | 0.00 | 79 | 1020.7 |